GFSFLT1_2pvu_pres_156.txt.gz
Presure
185 183 190 158 197 177 170 176 202 180 189 200 191 207 183 209 200 208 204 226 224 207 242 267 269 269 280 282 278 277 280 269
199 194 187 203 206 184 180 187 198 185 186 179 189 194 187 195 201 223 224 221 227 240 285 280 297 311 310 311 308 307 304 307
198 207 179 195 200 202 176 199 200 203 205 210 211 197 204 218 208 223 227 251 258 284 299 302 296 284 281 275 274 281 283 291
181 202 197 202 199 202 203 179 205 203 215 199 216 213 213 219 226 237 243 272 284 302 294 276 279 274 300 306 287 282 284 288
205 202 217 222 226 212 208 214 214 210 215 212 221 224 220 228 242 269 277 283 293 286 270 263 298 296 279 268 267 272 277 285
208 217 200 220 215 218 216 212 210 215 215 220 212 221 227 252 266 281 274 285 274 265 255 291 278 266 259 255 264 264 263 275
210 214 194 207 222 224 221 219 227 225 225 222 229 252 254 287 278 269 276 269 268 252 292 272 261 244 249 260 259 253 296 292
213 215 203 235 228 227 226 232 226 223 230 254 260 287 282 272 274 267 262 265 257 261 273 264 250 252 246 245 259 260 242 311
223 215 224 228 232 235 222 224 233 252 256 292 289 280 277 276 267 266 268 264 246 279 266 255 235 239 239 255 242 242 240 269
232 223 234 231 220 227 228 235 279 290 286 267 277 281 274 266 265 263 253 242 278 271 256 243 242 240 250 250 231 258 248 231
226 221 224 227 239 245 255 282 252 267 276 283 273 271 269 263 265 263 255 244 287 269 250 231 237 228 247 240 240 249 237 232
225 240 245 249 248 250 265 259 291 280 282 280 280 274 271 267 261 251 240 292 271 258 251 229 232 225 246 241 231 237 249 236
247 248 250 255 258 259 288 283 282 252 251 252 247 249 252 242 241 252 246 286 266 249 243 231 238 219 231 238 229 239 236 234
249 259 253 261 261 289 261 255 251 252 257 291 302 279 269 251 247 244 287 268 255 244 240 237 241 231 238 230 233 231 235 237
258 265 252 273 257 260 252 252 258 371 364 357 350 337 322 323 292 284 274 257 247 243 240 242 243 227 232 231 234 228 228 230
262 257 261 246 252 248 255 278 356 353 336 321 317 308 293 277 274 273 257 256 247 242 244 242 232 241 240 234 240 242 229 226
252 256 247 238 243 249 274 326 332 313 299 294 288 274 266 262 259 261 261 251 242 242 231 238 236 240 241 242 240 238 239 243
255 251 244 250 248 277 308 294 304 292 288 285 275 265 262 263 255 251 248 249 248 244 242 251 253 254 259 263 266 267 258 246
249 239 248 250 263 305 288 300 294 281 270 270 264 251 244 251 252 253 253 252 251 251 250 249 251 252 254 255 262 262 243 255

GFSFLT1_2pvu_pres_162.txt.gz
Presure
148 146 180 174 153 179 173 151 165 177 184 165 180 163 199 198 217 213 226 231 222 225 233 235 219 236 231 232 237 238 243 237
178 189 182 187 184 194 147 144 191 162 192 174 170 212 195 211 209 219 225 229 230 230 229 227 228 236 240 235 239 247 240 251
180 182 190 192 187 190 180 184 168 187 186 170 199 190 175 176 229 221 230 238 240 232 230 231 239 236 239 243 255 236 291 286
186 184 188 183 180 191 189 188 182 175 180 182 215 211 203 239 241 236 242 238 238 235 240 239 234 258 266 277 291 297 301 293
178 183 185 176 185 191 181 185 169 176 179 180 174 226 227 240 240 245 239 240 247 250 243 267 251 263 304 315 290 285 283 281
186 173 177 171 180 185 187 171 182 198 188 189 245 234 247 241 240 248 261 247 250 259 257 257 304 262 291 289 284 278 272 289
182 170 179 175 176 181 179 175 179 231 245 242 250 252 248 249 250 249 252 257 254 264 272 276 300 297 289 279 270 269 265 273
171 176 182 200 202 205 198 223 225 263 248 267 253 253 251 249 250 254 259 264 272 276 299 289 273 276 274 268 268 269 254 270
180 192 192 181 190 207 223 239 262 248 258 256 245 255 253 262 262 264 273 277 295 280 293 271 288 270 270 269 266 257 246 260
205 196 176 204 221 217 252 258 251 253 253 248 256 261 263 260 270 276 283 277 263 261 257 248 261 270 265 267 261 250 244 260
207 200 219 244 221 282 260 250 260 251 255 256 262 263 264 267 277 275 266 268 265 262 265 258 249 254 269 263 251 245 277 262
210 220 224 222 248 268 263 265 260 259 260 263 258 263 266 269 273 265 281 375 375 379 378 308 257 251 257 259 249 241 278 257
225 229 236 270 274 270 262 260 261 262 259 255 264 264 264 269 262 343 342 336 339 340 346 349 296 250 251 251 248 289 277 252
245 276 285 284 271 263 263 261 261 256 254 264 261 262 269 256 322 327 314 311 317 315 312 306 291 262 250 248 259 275 267 254
292 276 283 270 263 265 262 259 255 254 264 258 258 261 256 284 313 302 289 281 281 288 295 296 298 266 275 270 264 259 259 252
281 282 270 264 265 263 262 262 256 263 260 264 260 265 289 317 293 280 278 273 268 268 266 269 265 261 257 252 262 251 251 252
278 274 269 265 264 264 263 260 258 261 260 260 264 300 296 278 279 267 250 262 256 251 249 252 257 251 244 247 249 248 248 250
275 270 262 263 267 264 258 258 260 269 261 264 282 293 297 280 273 259 256 253 251 253 244 249 250 251 255 257 256 255 256 256
267 267 268 271 267 260 258 261 263 263 264 280 303 274 283 275 263 251 253 250 244 245 251 252 250 245 242 241 241 241 242 243

GFSFLT1_2pvu_pres_165.txt.gz
Presure
179 174 179 180 176 184 183 170 143 159 183 185 180 165 198 198 182 180 177 183 156 171 220 230 227 223 238 238 235 250 248 242
185 178 171 172 183 184 187 189 175 184 190 190 198 200 191 157 179 183 152 181 199 242 241 241 231 247 240 238 250 245 250 244
178 183 182 188 191 187 189 189 177 181 185 185 184 184 184 188 173 174 179 239 263 245 251 250 254 253 245 248 249 252 260 256
179 178 182 194 180 191 192 188 182 175 181 190 180 190 210 186 200 220 272 256 213 257 255 253 254 252 251 252 260 255 273 281
175 187 178 188 178 184 189 190 191 187 190 177 192 176 192 187 242 253 259 260 253 262 253 257 252 256 264 266 269 266 270 277
188 189 184 181 185 176 172 195 181 167 169 189 179 179 232 237 268 263 262 258 255 261 254 264 264 271 275 268 282 272 293 305
197 181 183 180 177 179 181 174 171 187 191 182 181 229 231 264 268 265 264 254 254 259 261 270 273 271 281 281 291 286 285 282
183 180 185 170 195 185 181 179 178 199 210 215 228 247 283 266 267 258 259 256 264 266 278 275 280 284 288 269 261 279 279 274
173 203 206 199 184 198 202 186 186 179 212 222 248 246 268 260 257 258 264 264 273 271 285 293 289 285 257 258 256 250 281 270
193 183 169 181 168 210 194 196 215 213 227 249 276 271 263 260 264 261 265 272 280 286 282 281 287 295 287 257 256 250 243 273
183 162 186 194 205 214 209 218 226 224 260 280 267 266 264 264 266 269 266 275 277 280 270 352 363 371 387 382 152 254 245 258
190 207 200 204 211 155 236 228 223 248 257 280 276 265 267 268 266 264 270 269 271 265 330 273 339 351 358 357 281 253 244 241
232 90 240 227 217 231 238 227 284 267 284 275 268 269 270 267 262 267 268 267 306 306 303 313 320 331 330 324 304 257 243 241
248 237 230 228 242 232 241 279 274 283 276 266 268 268 268 262 264 264 268 272 300 279 282 282 296 299 297 292 289 269 254 242
226 232 236 262 258 272 277 272 277 272 266 267 269 271 269 265 267 266 269 303 292 280 274 276 273 272 278 279 277 273 256 248
244 261 261 254 276 264 273 276 273 268 270 275 270 266 262 267 265 272 297 286 275 267 263 259 263 265 265 262 261 263 260 255
261 272 275 274 266 270 280 273 273 272 279 270 265 266 263 270 278 295 291 281 265 260 256 256 253 250 249 252 252 252 252 252
276 274 271 266 269 276 279 276 271 278 263 266 262 262 265 280 289 282 270 270 263 253 255 243 246 244 247 251 250 248 245 245
276 269 265 273 273 273 274 269 274 266 268 261 262 263 276 277 285 287 271 257 253 251 250 252 248 254 248 241 238 238 238 238

GFSFLT1_2pvu_pres_171.txt.gz
Presure
168 149 152 149 180 174 131 186 188 181 183 184 189 184 180 189 189 192 190 192 196 198 190 197 204 182 201 190 186 171 202 180
142 179 157 172 167 177 183 189 181 185 185 184 188 183 185 183 184 173 192 194 194 196 201 196 180 200 201 212 213 229 239 202
166 160 168 139 175 175 172 174 185 187 172 184 183 185 184 184 191 189 182 185 187 172 191 180 206 163 178 199 208 198 302 303
186 166 189 191 190 182 169 158 172 184 174 179 181 182 180 190 190 180 193 194 181 187 195 194 200 189 212 221 259 287 291 302
176 180 143 180 175 172 144 172 177 181 182 184 169 189 189 183 155 169 168 169 201 216 210 218 202 261 262 267 302 305 295 301
161 177 180 169 174 180 178 181 182 174 172 166 192 194 200 186 190 187 200 201 212 217 226 209 264 255 290 291 298 298 302 302
176 181 181 180 182 167 180 182 174 181 179 171 187 184 185 172 195 191 199 217 210 216 230 246 284 282 294 297 285 297 296 307
185 186 185 181 181 185 186 185 188 192 188 181 201 200 195 184 195 200 209 225 227 245 259 261 280 282 293 285 294 292 297 323
198 191 193 183 188 192 193 193 192 192 196 201 204 200 206 212 205 204 225 225 261 272 285 276 279 293 293 293 286 285 317 331
186 193 198 200 194 190 193 203 196 203 207 207 205 204 203 201 222 233 252 262 245 277 274 270 288 296 290 285 281 304 316 343
188 198 204 207 202 219 207 212 217 226 218 211 222 225 227 232 245 262 270 265 274 268 275 289 295 292 280 280 299 289 307 327
196 201 203 224 232 221 205 205 209 218 226 230 227 230 228 246 265 230 274 278 274 281 291 293 290 280 275 271 289 281 293 307
207 231 233 201 215 221 230 238 245 174 236 249 261 228 251 238 236 283 276 280 274 294 294 282 281 275 273 289 279 273 280 284
207 207 222 226 243 226 233 250 164 254 262 253 251 243 265 267 285 281 273 269 291 290 281 280 274 272 297 275 270 263 261 270
214 213 219 228 245 242 271 249 249 252 250 230 261 261 272 281 277 269 270 286 287 280 274 271 272 283 286 267 257 258 258 255
235 240 234 248 274 270 258 249 255 251 258 260 265 274 277 271 267 279 282 284 280 276 267 268 281 299 275 259 258 250 250 249
232 258 280 271 270 253 254 259 251 261 271 277 275 269 266 264 274 279 279 283 275 265 263 273 289 289 268 260 245 253 248 247
286 279 268 253 261 261 244 255 264 265 267 266 267 271 272 272 278 280 278 272 267 262 265 276 283 279 265 257 256 255 251 249
273 272 266 265 254 261 265 260 261 256 261 277 288 284 270 275 270 276 273 269 260 262 272 275 279 269 261 253 252 244 251 255

GFSFLT1_2pvu_pres_174.txt.gz
Presure
174 173 145 181 177 155 136 130 127 173 170 139 171 151 175 183 183 181 194 183 184 188 191 197 202 194 201 199 183 193 184 179
181 134 131 174 177 162 134 144 169 179 174 179 186 183 185 160 170 188 191 191 194 189 193 188 179 185 204 196 224 203 173 190
210 176 179 177 171 171 175 175 163 178 179 183 166 166 186 176 182 173 174 189 183 197 182 196 170 172 199 168 201 168 204 215
204 202 192 187 186 166 181 183 169 178 163 172 182 181 183 177 179 170 179 188 190 189 191 195 180 208 199 199 212 217 222 225
198 200 197 189 177 173 177 170 180 176 181 186 191 181 183 190 188 192 194 194 194 200 202 204 204 212 216 220 206 220 242 282
190 198 191 190 188 183 183 183 186 183 174 184 186 189 185 186 192 192 195 200 201 197 207 205 216 215 238 227 240 293 300 293
195 199 193 184 185 184 186 184 185 188 180 182 187 181 179 190 187 195 198 202 217 217 222 234 215 239 241 249 273 260 290 305
194 194 196 189 188 182 184 187 191 180 194 205 202 197 198 213 217 233 224 219 221 232 231 231 240 228 251 258 303 287 305 306
209 194 189 194 190 185 188 185 194 174 189 211 185 189 206 206 246 218 219 216 251 253 254 249 279 252 232 297 284 306 308 294
215 206 201 202 203 202 191 199 202 200 196 202 198 204 210 240 222 229 268 242 245 226 247 263 263 262 293 288 306 304 290 284
204 185 201 203 199 189 198 187 210 209 199 212 200 224 224 227 228 244 263 271 255 257 248 249 281 290 287 304 299 288 285 293
201 208 197 201 198 189 206 203 204 211 220 234 216 229 243 257 262 203 260 259 252 248 266 274 289 284 296 297 288 278 292 281
211 209 208 208 200 202 208 214 217 249 199 219 219 217 232 279 267 256 247 237 252 262 276 284 282 293 295 288 277 279 282 267
251 240 243 219 215 225 229 193 205 220 222 226 238 243 234 271 254 248 255 265 265 289 281 279 289 291 284 280 271 302 273 264
224 202 224 233 210 208 220 219 223 218 226 231 239 265 265 256 256 256 255 283 272 277 284 284 287 288 280 269 284 287 267 254
228 218 223 229 223 221 212 219 232 234 251 244 275 267 265 253 254 253 269 286 285 282 281 289 284 275 269 270 289 286 264 255
227 229 232 234 252 227 233 230 237 266 275 271 266 255 251 261 267 264 277 276 280 278 276 279 278 273 267 273 290 279 264 255
238 262 235 253 254 262 257 254 272 273 264 259 258 252 266 260 256 273 288 282 274 273 274 269 273 265 263 275 282 273 265 255
298 289 287 293 281 284 265 264 256 255 255 262 261 258 249 254 266 272 278 266 267 273 280 276 265 264 268 277 281 269 261 255